Главная страница
METAR-TAF:

METAR-TAF

Аэропорты :

Morristown, Нью-Джерси, США

широта: 40-48N, долгота: 074-25W, высота над уровнем моря: 57 м

Текущие метеонаблюдения

Эта сводка был подготовлена 29 минут назад, в 16:45 UTC
Ветер 9 Узел от западный
Температура 2°C
Влажность 64%
Давление 1018 hPa
Видимость: 16.1 км
Сплошная облачность на высоте 3100 фута

METAR: KMMU 161645Z 27009KT 10SM OVC031 02/M04 A3007

Время: 12:14 (17:14 UTC)


TAF: отсутствует

Метеонаблюдения и прогнозы для более 4000 аэропортов (сводки METAR и TAF).

Имеющиеся станции представлены на карте желтыми и красными точками.

Чтобы увидеть название станции, наведите на нее мышь.

Затем щелкните, чтобы увидеть метеонаблюдения и метеопрогнозы.

Управление картой: чтобы увеличить масштаб, щелкните зеленые кнопки с черным крестиком; чтобы уменьшить масштаб, щелкните зеленую кнопку с тире; для просмотра соседних карт щелкайте зеленые стрелки.


METAR-TAF: